[[{"header":{"parameterUnit":"m.s-1","parameterCategory":1,"la1":30.2991,"la2":30.254,"lo1":-89.0895,"lo2":-89.0444,"dy":0.0017,"dx":0.0017,"nx":28,"ny":28,"refTime":"2025-04-17T03:00:00:Z","depth":0,"parameterNumber":2,"parameterNumberName":"U-component_of_WINDS"},"data":[0,0,0,0,0,0,0,0,0,0,0,0,0,0,0,0,0,0,0,0,0,0,0,0,0,0,0,0,0,0,0,0,0,0,0,0,0,0,0,0,0,0,0,0,0,0,0,0,0,0,0,0,0,0,0,0,0,0,-0.3495,-0.3496,0,-0.3558,-0.3559,-0.3559,-0.3589,-0.3589,-0.3589,-0.3589,-0.3657,-0.3659,-0.3661,0,0,0,0,0,0,0,0,0,0,0,0,0,-0.3405,-0.3407,-0.3495,-0.3496,-0.3497,-0.3558,-0.3559,-0.356,-0.3589,-0.3589,-0.3589,-0.3589,-0.3656,-0.3659,-0.3661,0,0,0,0,0,0,0,0,0,0,0,0,0,-0.3454,-0.3407,-0.3495,-0.3519,-0.3522,-0.3558,-0.3559,-0.356,-0.359,-0.3589,-0.3589,-0.3589,-0.3656,-0.3658,-0.3661,-0.3679,0,0,-0.3669,-0.3671,0,0,0,0,0,0,0,0,-0.3451,-0.3457,-0.3515,-0.3517,-0.352,-0.3566,-0.3552,-0.36,-0.359,-0.3564,-0.3589,-0.3589,-0.3627,-0.3632,-0.3644,-0.3682,-0.3685,-0.367,-0.3671,-0.3673,-0.3673,0,0,0,0,0,0,0,-0.3448,-0.3455,-0.352,-0.3515,-0.3519,-0.3528,-0.3535,-0.3561,-0.3595,-0.3566,-0.3568,-0.3575,-0.3629,-0.3641,-0.3646,-0.3686,-0.367,-0.3672,-0.3674,-0.3675,-0.3744,-0.3744,0,0,0,0,0,0,-0.344,-0.3451,-0.3518,-0.3522,-0.3485,-0.3529,-0.3537,-0.3551,-0.3595,-0.3601,-0.3575,-0.3576,-0.3637,-0.3643,-0.3648,-0.3673,-0.3672,-0.3675,-0.3677,-0.3744,-0.3744,-0.3745,0,0,0,0,0,0,-0.3438,-0.3445,-0.3515,-0.3487,-0.3497,-0.3531,-0.3547,-0.3553,-0.3565,-0.3602,-0.3608,-0.3582,-0.3637,-0.3644,-0.3671,-0.3676,-0.3676,-0.3679,-0.3744,-0.3744,-0.3744,-0.3723,0,0,0,0,0,0,-0.3435,-0.3444,-0.345,-0.3487,-0.3498,-0.3536,-0.3547,-0.3554,-0.357,-0.3572,-0.3609,-0.3616,-0.3637,-0.3667,-0.3674,-0.368,-0.3681,-0.3744,-0.3744,-0.3744,-0.3723,-0.3722,-0.3722,0,0,0,0,0,-0.3432,-0.3442,-0.3451,-0.3459,-0.3506,-0.3536,-0.3543,-0.3566,-0.357,-0.3577,-0.3601,-0.3615,-0.3674,-0.367,-0.3678,-0.3684,-0.3743,-0.3744,-0.3744,-0.3724,-0.3723,-0.3722,0,0,0,0,0,0,-0.3406,-0.3447,-0.3457,-0.348,-0.3504,-0.3541,-0.3551,-0.3564,-0.3589,-0.359,-0.362,-0.3628,-0.3653,-0.3671,-0.3665,-0.3705,-0.371,-0.3712,-0.3692,-0.3691,-0.369,-0.3686,-0.3683,0,0,0,0,0,-0.3403,-0.3422,-0.3458,-0.3475,-0.3486,-0.3516,-0.353,-0.3547,-0.3574,-0.3584,-0.361,-0.3636,-0.3662,-0.3677,-0.3702,-0.3726,-0.3736,-0.3735,-0.3734,-0.3733,-0.3735,-0.3751,-0.3751,-0.3746,-0.3746,-0.3746,0,0,-0.3397,-0.3422,-0.3433,-0.347,-0.3491,-0.3512,-0.3525,-0.3546,-0.3563,-0.3588,-0.3615,-0.3635,-0.3667,-0.3692,-0.3705,-0.3709,-0.3738,-0.3734,-0.3733,-0.3735,-0.3751,-0.3752,-0.3752,-0.3746,-0.3746,-0.3746,0,0,-0.3397,-0.3417,-0.3434,-0.3454,-0.3485,-0.3506,-0.3509,-0.3545,-0.3559,-0.3586,-0.3606,-0.3627,-0.3668,-0.3691,-0.3708,-0.3717,-0.3732,-0.3725,-0.372,-0.3735,-0.3736,-0.3736,-0.3741,-0.3742,-0.3726,-0.3726,-0.3726,0,-0.3386,-0.3417,-0.3441,-0.3461,-0.3478,-0.3501,-0.3519,-0.3538,-0.3576,-0.3588,-0.3591,-0.3645,-0.3668,-0.3701,-0.3703,-0.3715,-0.3722,-0.372,-0.3733,-0.3734,-0.3735,-0.374,-0.3742,-0.3725,-0.3725,-0.3725,-0.3725,0,-0.3402,-0.3424,-0.3434,-0.3469,-0.3487,-0.3506,-0.3534,-0.355,-0.3565,-0.3585,-0.3614,-0.3642,-0.3674,-0.3683,-0.3698,-0.3718,-0.3719,-0.3727,-0.3734,-0.3734,-0.3739,-0.3741,-0.3724,-0.3724,-0.3724,-0.3724,0,0,-0.3387,-0.3436,-0.3439,-0.3456,-0.3493,-0.3511,-0.3532,-0.3562,-0.3576,-0.3601,-0.3621,-0.3656,-0.3665,-0.3684,-0.3702,-0.3715,-0.3722,-0.3722,-0.3723,-0.3722,-0.3748,-0.3742,-0.3743,-0.3732,-0.3732,-0.3733,-0.3746,0,-0.3393,-0.343,-0.3453,-0.3482,-0.3503,-0.3526,-0.3544,-0.357,-0.359,-0.3612,-0.3634,-0.3659,-0.3668,-0.368,-0.3694,-0.3718,-0.3728,-0.3718,-0.3752,-0.3753,-0.3744,-0.3746,-0.3739,-0.375,-0.3748,-0.3748,-0.3748,0,-0.3404,-0.3429,-0.3459,-0.3495,-0.3505,-0.3521,-0.3551,-0.3571,-0.3601,-0.3615,-0.3637,-0.3655,-0.368,-0.3684,-0.3719,-0.3712,-0.3727,-0.3742,-0.3743,-0.3748,-0.3751,-0.3751,-0.3754,-0.3755,-0.3751,-0.3751,-0.3751,0,-0.3392,-0.3433,-0.3456,-0.347,-0.3512,-0.3523,-0.3541,-0.3571,-0.3588,-0.3615,-0.3627,-0.3656,-0.3673,-0.3697,-0.3723,-0.3723,-0.3757,-0.3762,-0.377,-0.377,-0.3777,-0.3776,-0.3782,-0.3785,-0.3785,-0.3785,-0.3785,0,-0.3396,-0.3414,-0.3451,-0.3466,-0.3488,-0.3515,-0.3536,-0.3556,-0.3583,-0.3603,-0.3625,-0.3644,-0.3677,-0.3701,-0.3722,-0.3749,-0.3757,-0.377,-0.3775,-0.3768,-0.3766,-0.3779,-0.3779,-0.3786,-0.3785,-0.3785,-0.3785,0,-0.3385,-0.3411,-0.3439,-0.3476,-0.3486,-0.35,-0.3533,-0.3549,-0.357,-0.3596,-0.3604,-0.3637,-0.3667,-0.3695,-0.3734,-0.3749,-0.3776,-0.3783,-0.3766,-0.3769,-0.3776,-0.3775,-0.3791,-0.3795,-0.3794,-0.3794,-0.3794,0,-0.3386,-0.3401,-0.344,-0.3454,-0.3472,-0.3495,-0.3513,-0.354,-0.3558,-0.3594,-0.3606,-0.3637,-0.3663,-0.3708,-0.3738,-0.3768,-0.3777,-0.378,-0.3782,-0.3774,-0.3778,-0.3777,-0.378,-0.3779,-0.3779,-0.3779,-0.3779,0,-0.3386,-0.3399,-0.3422,-0.3451,-0.3471,-0.3495,-0.352,-0.3532,-0.3564,-0.3584,-0.3613,-0.3633,-0.3673,-0.3704,-0.3738,-0.3759,-0.3775,-0.3778,-0.3782,-0.3775,-0.3765,-0.3772,-0.3764,-0.3778,-0.3778,-0.3778,-0.3778,-0.3778,-0.3383,-0.3397,-0.3426,-0.3453,-0.3474,-0.3498,-0.3515,-0.3538,-0.3563,-0.3597,-0.3612,-0.3643,-0.3674,-0.3722,-0.3742,-0.3767,-0.3771,-0.3776,-0.3778,-0.3779,-0.3778,-0.376,-0.3774,-0.3774,-0.3774,-0.3774,-0.3774,0,-0.3385,-0.3405,-0.3429,-0.3463,-0.3484,-0.3496,-0.3525,-0.3542,-0.3568,-0.3596,-0.3621,-0.3656,-0.3686,-0.3717,-0.375,-0.3764,-0.3773,-0.3772,-0.3772,-0.3776,-0.3772,-0.3766,-0.3765,-0.3765,-0.3765,-0.3765,-0.3765,-0.3765,-0.3388,-0.3413,-0.3429,-0.3466,-0.3487,-0.3516,-0.3531,-0.3554,-0.3576,-0.3613,-0.3638,-0.3658,-0.3688,-0.3723,-0.3752,-0.3761,-0.3772,-0.377,-0.3781,-0.3776,-0.3776,-0.3777,-0.3772,-0.3772,-0.3772,-0.3783,-0.3783,-0.3784]},{"header":{"parameterUnit":"m.s-1","parameterCategory":1,"la1":30.2991,"la2":30.254,"lo1":-89.0895,"lo2":-89.0444,"dy":0.0017,"dx":0.0017,"nx":28,"ny":28,"refTime":"2025-04-17T03:00:00:Z","depth":0,"parameterNumber":3,"parameterNumberName":"V-component_of_WINDS"},"data":[0,0,0,0,0,0,0,0,0,0,0,0,0,0,0,0,0,0,0,0,0,0,0,0,0,0,0,0,0,0,0,0,0,0,0,0,0,0,0,0,0,0,0,0,0,0,0,0,0,0,0,0,0,0,0,0,0,0,6.1861,6.1862,0,6.1962,6.1963,6.1964,6.1912,6.1909,6.1906,6.1904,6.2001,6.2006,6.2011,0,0,0,0,0,0,0,0,0,0,0,0,0,6.1614,6.1619,6.1861,6.1862,6.1863,6.1962,6.1963,6.1965,6.1912,6.1909,6.1906,6.1903,6.1999,6.2005,6.2011,0,0,0,0,0,0,0,0,0,0,0,0,0,6.1719,6.162,6.1861,6.1849,6.1849,6.1962,6.1963,6.1965,6.1913,6.1909,6.1905,6.1901,6.1997,6.2004,6.2012,6.2139,0,0,6.2035,6.2039,0,0,0,0,0,0,0,0,6.1713,6.1728,6.185,6.185,6.185,6.192,6.1912,6.2023,6.1914,6.1889,6.1904,6.1899,6.1977,6.1986,6.2013,6.2144,6.2148,6.2036,6.204,6.2044,6.2046,0,0,0,0,0,0,0,6.1706,6.1723,6.1901,6.1851,6.1852,6.1836,6.1847,6.1933,6.1954,6.189,6.1887,6.19,6.1976,6.2006,6.2015,6.2149,6.2036,6.2042,6.2047,6.205,6.2386,6.239,0,0,0,0,0,0,6.17,6.1717,6.1897,6.1904,6.1771,6.1844,6.1856,6.1902,6.1953,6.1957,6.1903,6.1897,6.1995,6.2006,6.2018,6.2169,6.2044,6.2051,6.2055,6.2382,6.2387,6.2392,0,0,0,0,0,0,6.1695,6.1717,6.1893,6.181,6.1831,6.1853,6.1905,6.1906,6.1936,6.1963,6.1965,6.1931,6.1992,6.2008,6.2109,6.2171,6.2054,6.2061,6.2376,6.2383,6.2389,6.2472,0,0,0,0,0,0,6.1688,6.1715,6.1766,6.1811,6.1836,6.1985,6.1909,6.1911,6.195,6.1943,6.1989,6.1992,6.199,6.2098,6.2117,6.218,6.2067,6.2371,6.2379,6.2387,6.2463,6.248,6.2494,0,0,0,0,0,6.168,6.1784,6.1769,6.1791,6.19,6.1989,6.2003,6.2,6.1955,6.2005,6.2021,6.1991,6.2162,6.2109,6.213,6.2196,6.2367,6.2377,6.2387,6.2456,6.2477,6.2494,0,0,0,0,0,0,6.1743,6.179,6.1773,6.1896,6.1939,6.198,6.2043,6.2022,6.2077,6.2068,6.206,6.2071,6.2176,6.2196,6.2137,6.232,6.2257,6.2271,6.2303,6.2323,6.2338,6.233,6.2073,0,0,0,0,0,6.1772,6.1843,6.1879,6.1984,6.2006,6.2021,6.206,6.2054,6.2097,6.2115,6.2139,6.218,6.2243,6.2284,6.2343,6.2466,6.2474,6.2522,6.2537,6.255,6.2562,6.2625,6.2646,6.2424,6.2424,6.2424,0,0,6.1831,6.1865,6.191,6.1997,6.203,6.2101,6.2037,6.2115,6.2166,6.2126,6.2223,6.2243,6.2288,6.24,6.2451,6.242,6.2625,6.2562,6.2572,6.2577,6.2637,6.2658,6.2677,6.243,6.2429,6.2428,0,0,6.1975,6.201,6.21,6.2134,6.2185,6.2194,6.2215,6.2259,6.2271,6.2369,6.234,6.2399,6.2509,6.2541,6.2572,6.2727,6.27,6.2747,6.2827,6.2889,6.2907,6.2922,6.2975,6.2994,6.2759,6.2759,6.2759,0,6.2041,6.215,6.2148,6.2228,6.2266,6.2235,6.2324,6.2356,6.2423,6.2449,6.2414,6.2549,6.2577,6.2695,6.2733,6.276,6.2782,6.2741,6.2905,6.292,6.2934,6.2984,6.3005,6.2764,6.2763,6.2763,6.2762,0,6.2227,6.2303,6.2369,6.2436,6.2481,6.2566,6.2574,6.2619,6.261,6.2621,6.272,6.2753,6.2817,6.2845,6.2836,6.2962,6.294,6.2906,6.2842,6.2961,6.3008,6.3027,6.2771,6.277,6.2768,6.2767,0,0,6.2414,6.2479,6.2503,6.2532,6.2585,6.2642,6.2724,6.2789,6.2827,6.2873,6.2939,6.3032,6.3,6.3035,6.3029,6.3084,6.3201,6.3041,6.3042,6.3068,6.3338,6.3363,6.3385,6.3184,6.3188,6.3191,6.3333,0,6.256,6.2705,6.2705,6.2838,6.2905,6.2876,6.2947,6.2985,6.2998,6.3055,6.3068,6.3133,6.3087,6.3107,6.3161,6.3176,6.3255,6.3165,6.3242,6.3245,6.323,6.341,6.3437,6.357,6.3352,6.3355,6.3357,0,6.2749,6.2804,6.2944,6.2986,6.3014,6.3078,6.3136,6.3193,6.3234,6.324,6.3279,6.3264,6.3343,6.3279,6.3387,6.3326,6.3358,6.3369,6.3374,6.338,6.3307,6.3418,6.3613,6.3632,6.3387,6.3384,6.3382,0,6.2868,6.2977,6.3074,6.31,6.3152,6.3197,6.322,6.3259,6.3297,6.3347,6.3371,6.343,6.3461,6.3505,6.3505,6.3459,6.3613,6.3549,6.3617,6.3617,6.365,6.3647,6.385,6.3674,6.3674,6.3673,6.3673,0,6.303,6.3116,6.3128,6.3188,6.3282,6.328,6.3373,6.3392,6.3426,6.3486,6.3464,6.3521,6.3519,6.3575,6.3576,6.3663,6.3678,6.3682,6.3681,6.3683,6.3682,6.3702,6.3692,6.3678,6.3677,6.3676,6.3675,0,6.3178,6.319,6.3294,6.3335,6.3347,6.3415,6.3448,6.3503,6.3514,6.359,6.3608,6.3624,6.3689,6.3694,6.377,6.377,6.3875,6.3865,6.3862,6.3859,6.3926,6.3919,6.4147,6.4175,6.3983,6.3984,6.3986,0,6.328,6.3346,6.3394,6.3434,6.346,6.3525,6.3564,6.3563,6.3605,6.3657,6.3705,6.3769,6.3819,6.3925,6.3941,6.3998,6.3987,6.4063,6.3995,6.3995,6.3985,6.3981,6.3986,6.4076,6.4078,6.408,6.4081,0,6.3458,6.3461,6.3519,6.358,6.3628,6.3675,6.3718,6.3752,6.3756,6.3803,6.3871,6.391,6.3987,6.405,6.4105,6.4126,6.4103,6.4103,6.4121,6.4123,6.4117,6.4119,6.3895,6.4097,6.4095,6.4094,6.4093,6.4093,6.3585,6.3641,6.3683,6.3749,6.3782,6.3823,6.3876,6.3894,6.3951,6.4015,6.4011,6.4085,6.4122,6.4195,6.422,6.4276,6.425,6.4277,6.4283,6.4289,6.4295,6.411,6.4286,6.4286,6.4285,6.4285,6.4285,0,6.376,6.3785,6.3846,6.3908,6.3959,6.3936,6.3983,6.4026,6.4092,6.413,6.4181,6.4257,6.4317,6.4339,6.4396,6.4437,6.4428,6.4452,6.4447,6.4452,6.4317,6.4294,6.4458,6.4458,6.4458,6.4458,6.4458,6.4458,6.3857,6.395,6.3957,6.4065,6.4089,6.4163,6.4192,6.4228,6.4259,6.4346,6.4396,6.441,6.4441,6.45,6.4553,6.4558,6.4579,6.4607,6.4607,6.4479,6.4462,6.4445,6.4424,6.4612,6.4612,6.4737,6.4738,6.4739]}]]